Weather in Koli

Russia / Saint-Petersburg and Leningrad Oblast     59°29′48″N   34°29′59″E
temp.,
°C
wind,
m/s
gust,
m/s
humid.,
%
clouds,
%
prec.,
mm/h
press.,
hPa
HPBL,
m
23 april, fri
fri2300:00+4se311885 0.0 1009202
03:00+4se3129198 0.0 1008287
06:00+4se31096100 0.0 1007254
09:00+4wsw3696100 0.3 1009688
12:00+7ssw3473100 0.3 1009962
15:00+8s3469100 0.4 10091062
18:00+5sw2793100 1.1 1009717
21:00+3s2395100 1.3 100967
24 april, sat
sat2400:00+1s229399 0.0 101034
03:00+1sse2290100 0.0 100937
06:00+1s1184100 0.0 100826
09:00+4se1173100 0.0 1007300
12:00+6w1162100 0.0 10061022
15:00+7nw2260100 0.1 10061155
18:00+6nw2368100 0.4 1005983
21:00+3wnw3778100 0.7 1006418
25 april, sun
sun2500:00+1w3791100 0.0 1005254
03:00+1wnw3892100 0.0 1004346
06:000w3891100 0.0 1003436
09:00+2w4882100 0.0 1003595
12:00+3w5774100 0.2 10031085
15:00+4w4774100 0.6 10031023
18:00+3w3886100 0.5 1004775
21:00+2wsw3991100 0.8 1004710
26 april, mon
mon2600:00+1wsw3993100 0.4 1004644
03:00+1wsw3995100 0.8 1003528
06:00+1wsw41094100 0.2 1003584
09:00+2wsw4989100 0.3 1004675
12:00+2wsw5991100 0.4 1005833
15:00+3wsw41092100 1.1 1005873
18:00+2sw41095100 0.8 1005709
21:00+1sw41097100 1.3 1005781
27 april, tue
tue2700:00+1sw3998100 0.6 1004550
03:00+1sw3898100 0.9 1004484
06:000sw2798100 0.6 1003297
09:00+1sw2798100 0.9 1003383
12:00+1wsw2699100 0.5 1004343
15:00+2w2599100 0.9 1004274
18:00+1nw2598100 0.4 1004283
21:00+1nw2599100 0.6 1005503